sat.trackr.live / text

‹ back to catalog

STARLINK-11489 [DTC]

NORAD 62271 · 2024-237E

PAYLOAD ACTIVE UNKNOWN

§ Identity

Operator
Country
US
Launch date
2024-12-08
Launch site
AFETR
Launch vehicle
Mass (kg)
RCS (m²)

Purposes: comms

External: N2YO · Heavens-Above · Gunter

§ Orbital elements

Epoch: 2026-09-21T04:38:06.362880Z

Period
91.67 min
Inclination
42.9996°
Eccentricity
0.0001315
Mean motion
15.70866654 rev/d
Perigee alt
355.5 km
Apogee alt
357.3 km
Semi-major
6,734.6 km
B*
8.4046e-4
RAAN
318.7405°
Arg perigee
247.0530°
Mean anomaly
113.0199°
Rev number
10,379

§ Raw data

STARLINK-11489 [DTC]1 62271U 24237E   26264.19312920  .00108939  00000+0  84046-3 0  99972 62271  42.9996 318.7405 0001315 247.0530 113.0199 15.70866654103790

JSON: /api/v1/satellites/62271 · /tle

For live sub-satellite position, see the globe view (requires WebGL).

§ Visibility from observer

Set your observer location to see the next 7 days of passes ≥ 10°. The values pass through the URL so the page stays shareable.

No JS? Fill the form by hand. The geolocation button needs JavaScript.